TimeEST,TemperatureF,Dew PointF,Humidity,Sea Level PressureIn,VisibilityMPH,Wind Direction,Wind SpeedMPH,Gust SpeedMPH,PrecipitationIn,Events,Conditions,WindDirDegrees,DateUTC
12:53 AM,69.1,63.0,81,30.14,10.0,NNE,12.7,-,N/A,,Clear,20,2012-11-29 05:53:00
1:53 AM,69.1,64.0,84,30.13,10.0,NNE,11.5,-,N/A,,Clear,30,2012-11-29 06:53:00
2:53 AM,70.0,64.0,81,30.12,10.0,NE,10.4,-,N/A,,Mostly Cloudy,40,2012-11-29 07:53:00
3:53 AM,69.1,64.0,84,30.12,10.0,NNE,9.2,-,N/A,,Overcast,20,2012-11-29 08:53:00
4:53 AM,68.0,63.0,84,30.13,10.0,NNE,11.5,-,N/A,,Overcast,20,2012-11-29 09:53:00
5:53 AM,68.0,62.1,81,30.13,10.0,NNE,9.2,-,N/A,,Partly Cloudy,20,2012-11-29 10:53:00
6:53 AM,68.0,62.1,81,30.15,10.0,NNE,9.2,-,N/A,,Partly Cloudy,20,2012-11-29 11:53:00
7:53 AM,68.0,61.0,78,30.16,10.0,NNE,11.5,-,N/A,,Partly Cloudy,30,2012-11-29 12:53:00
8:53 AM,69.1,61.0,75,30.18,10.0,NNE,11.5,-,N/A,,Clear,20,2012-11-29 13:53:00
9:53 AM,70.0,62.1,76,30.19,10.0,NE,12.7,-,N/A,,Clear,40,2012-11-29 14:53:00
11:53 AM,75.9,64.0,67,30.18,10.0,NE,13.8,-,N/A,,Clear,50,2012-11-29 16:53:00
12:53 PM,77.0,64.0,64,30.14,10.0,NE,13.8,-,N/A,,Clear,50,2012-11-29 17:53:00
1:53 PM,78.1,64.0,62,30.12,10.0,NE,16.1,-,N/A,,Scattered Clouds,50,2012-11-29 18:53:00
2:53 PM,77.0,64.9,66,30.12,10.0,NE,12.7,-,N/A,,Partly Cloudy,50,2012-11-29 19:53:00
3:53 PM,75.9,64.0,67,30.12,10.0,NE,16.1,-,N/A,,Clear,50,2012-11-29 20:53:00
4:53 PM,75.0,64.0,69,30.12,10.0,ENE,12.7,-,N/A,,Clear,60,2012-11-29 21:53:00
5:53 PM,73.9,64.0,71,30.13,10.0,NE,11.5,-,N/A,,Clear,50,2012-11-29 22:53:00
6:53 PM,73.0,64.0,73,30.14,10.0,NE,15.0,-,N/A,,Clear,40,2012-11-29 23:53:00
7:53 PM,72.0,64.9,78,30.15,10.0,NNE,12.7,-,N/A,,Clear,30,2012-11-30 00:53:00
8:53 PM,72.0,64.9,78,30.16,10.0,NNE,11.5,-,N/A,,Clear,30,2012-11-30 01:53:00
9:53 PM,71.1,64.9,81,30.16,10.0,NE,9.2,-,N/A,,Scattered Clouds,40,2012-11-30 02:53:00
10:53 PM,72.0,66.0,81,30.16,10.0,NE,11.5,-,0.01,Rain,Light Rain,40,2012-11-30 03:53:00
11:53 PM,73.0,64.0,73,30.14,10.0,ENE,8.1,-,0.00,,Clear,70,2012-11-30 04:53:00